Location: Bon Acre
(42.6442°N, 73.5758°W)
Time: 02:22:19
(UTC+00:00)

SL-08 R/B - Pass Details

Date: 14 March 2026
Orbit: 946 x 992 km, 83.0° (Epoch: 13 April)

Event Time Altitude Azimuth Distance (km) Brightness Sun altitude
Exits shadow 02:03:43 37° 8° (N) 1,433 5.4 -33.4°
Drops below altitude 10° 02:07:15 10° 8° (N) 2,676 7.0 -33.9°
Sets 02:09:44 0° 8° (N) 3,624 7.8 -34.3°
